Location: Buckhorn Peak
(37.6641°N, 120.1241°W)
Time: 10:35:58
(UTC+00:00)

Envisat - Pass Details

Date: 11 October 2024
Orbit: 761 x 763 km, 98.3° (Epoch: 05 November)

Event Time Altitude Azimuth Distance (km) Brightness Sun altitude
Rises 11:05:38 0° 13° (NNE) 3,232 6.6 -35.9°
Reaches altitude 10° 11:07:56 10° 13° (NNE) 2,302 5.8 -35.5°
Enters shadow 11:09:08 18° 14° (NNE) 1,833 5.2 -35.2°
